Tracking 19817 objects as of 18-Aug-2019
HD Live streaming from Space Station
objects crossing your sky now

COSMOS 1317 DEB

Track COSMOS 1317 DEB now!


NORAD ID: 14736
Int'l Code: 1981-108G
Perigee: 7,128.5 km
Apogee: 33,304.2 km
Inclination: 71.5 °
Period: 719.1 minutes
Semi major axis: 26587 km
RCS: 3.4522 m2 (large)
Launch date: October 31, 1981
Source: Commonwealth of Independent States (former USSR) (CIS)
Launch site: PLESETSK MISSILE AND SPACE COMPLEX (PKMTR)

Note: This is SATELLITE DEBRIS
aabbcc
Your satellite tracking list
Your tracking list is empty




NASA's NSSDC Master Catalog

Two Line Element Set (TLE):
1 14736U 81108G   19228.91486964  .00000064  00000-0  00000+0 0  9997
2 14736  71.5359 212.7498 4922586  34.2903  94.6834  2.00258254183311
Source of the keplerian elements: AFSPC